N321JF KHEF-KDAB

Flight info

Callsign N321JF
Flight time 2h 2m
Altitude 43000
Route GABBE3 RRSIN GSO Q83 ROYCO Q85 LPERD TTHOR3
Aircraft HDJT/L-SABDGRWY/H

Departure

Time 2026-05-07 00:54
Airport Manassas Regional Airport/Harry P. Davis Field (KHEF)

Arrival

Time 2026-05-07 02:56
Airport Daytona Beach International Airport (KDAB)
Time Latitude Longitude Altitude Speed Heading
2026-05-07 00:33 38.72343 -77.51279 195 ft 0 kts 241°
2026-05-07 00:50 38.72343 -77.51280 195 ft 0 kts 241°
2026-05-07 00:51 38.72350 -77.51315 200 ft 7 kts 325°
2026-05-07 00:51 38.72419 -77.51360 200 ft 14 kts 331°
2026-05-07 00:51 38.72468 -77.51396 205 ft 12 kts 332°
2026-05-07 00:51 38.72546 -77.51451 195 ft 13 kts 331°
2026-05-07 00:52 38.72622 -77.51507 199 ft 10 kts 310°
2026-05-07 00:52 38.72611 -77.51573 203 ft 9 kts 251°
2026-05-07 00:52 38.72649 -77.51629 200 ft 11 kts 330°
2026-05-07 00:52 38.72726 -77.51685 195 ft 14 kts 331°
2026-05-07 00:53 38.72808 -77.51753 195 ft 13 kts 292°
2026-05-07 00:53 38.72804 -77.51786 195 ft 0 kts 239°
2026-05-07 00:53 38.72782 -77.51836 201 ft 12 kts 241°
2026-05-07 00:54 38.72729 -77.51851 195 ft 20 kts 149°
2026-05-07 00:54 38.72315 -77.51550 196 ft 112 kts 150°
2026-05-07 00:54 38.71516 -77.50972 464 ft 142 kts 151°
2026-05-07 00:54 38.70606 -77.50377 946 ft 154 kts 169°
2026-05-07 00:55 38.69527 -77.50611 1400 ft 169 kts 213°
2026-05-07 00:55 38.68616 -77.51717 1701 ft 194 kts 236°
2026-05-07 00:55 38.67835 -77.53204 2181 ft 197 kts 238°
2026-05-07 00:55 38.67091 -77.54613 2904 ft 192 kts 236°
2026-05-07 00:56 38.66218 -77.56100 2991 ft 226 kts 234°
2026-05-07 00:56 38.65209 -77.57758 3000 ft 244 kts 234°
2026-05-07 00:56 38.64177 -77.59468 3005 ft 242 kts 234°
2026-05-07 00:56 38.63126 -77.61201 3002 ft 249 kts 230°
2026-05-07 00:57 38.61833 -77.62660 3005 ft 250 kts 216°
2026-05-07 00:57 38.60359 -77.63630 3387 ft 228 kts 204°
2026-05-07 00:57 38.58879 -77.64115 4307 ft 216 kts 194°
2026-05-07 00:57 38.57376 -77.64232 5091 ft 223 kts 187°
2026-05-07 00:58 38.55822 -77.64276 5901 ft 224 kts 189°
2026-05-07 00:58 38.54260 -77.64333 6693 ft 226 kts 189°
2026-05-07 00:58 38.52686 -77.64376 7522 ft 226 kts 189°
2026-05-07 00:58 38.51106 -77.64417 8348 ft 228 kts 189°
2026-05-07 00:59 38.47928 -77.64504 10025 ft 230 kts 190°
2026-05-07 00:59 38.46319 -77.64549 10742 ft 233 kts 190°
2026-05-07 00:59 38.44685 -77.64594 11474 ft 237 kts 190°
2026-05-07 01:00 38.43049 -77.64639 12215 ft 240 kts 190°
2026-05-07 01:00 38.41372 -77.64685 12987 ft 243 kts 191°
2026-05-07 01:00 38.39668 -77.64732 13734 ft 246 kts 191°
2026-05-07 01:00 38.37944 -77.64779 14435 ft 249 kts 192°
2026-05-07 01:01 38.36205 -77.64827 15138 ft 252 kts 192°
2026-05-07 01:01 38.34435 -77.64873 15820 ft 256 kts 193°
2026-05-07 01:01 38.32656 -77.64951 16546 ft 254 kts 198°
2026-05-07 01:01 38.30950 -77.65373 17265 ft 246 kts 209°
2026-05-07 01:02 38.29377 -77.66141 18021 ft 239 kts 218°
2026-05-07 01:02 38.27984 -77.67193 18693 ft 233 kts 227°
2026-05-07 01:02 38.26746 -77.68481 19362 ft 230 kts 231°
2026-05-07 01:02 38.25521 -77.69797 20043 ft 231 kts 231°
2026-05-07 01:03 38.24283 -77.71112 20698 ft 233 kts 231°
2026-05-07 01:03 38.23030 -77.72458 21302 ft 238 kts 231°
2026-05-07 01:03 38.21764 -77.73813 22013 ft 239 kts 231°
2026-05-07 01:03 38.20489 -77.75180 22731 ft 241 kts 231°
2026-05-07 01:04 38.19205 -77.76554 23459 ft 242 kts 231°
2026-05-07 01:04 38.17914 -77.77936 24067 ft 243 kts 231°
2026-05-07 01:04 38.16615 -77.79324 24672 ft 244 kts 230°
2026-05-07 01:04 38.15329 -77.80699 25276 ft 246 kts 230°
2026-05-07 01:05 38.14017 -77.82101 25888 ft 247 kts 230°
2026-05-07 01:05 38.12698 -77.83510 26477 ft 248 kts 230°
2026-05-07 01:05 38.11372 -77.84926 27046 ft 250 kts 230°
2026-05-07 01:05 38.10038 -77.86349 27604 ft 251 kts 230°
2026-05-07 01:06 38.08695 -77.87781 28050 ft 253 kts 230°
2026-05-07 01:06 38.07346 -77.89219 28510 ft 254 kts 230°
2026-05-07 01:06 38.05991 -77.90663 28951 ft 255 kts 229°
2026-05-07 01:06 38.04646 -77.92096 29374 ft 256 kts 229°
2026-05-07 01:07 38.03259 -77.93572 29778 ft 258 kts 229°
2026-05-07 01:07 38.01890 -77.95030 30043 ft 262 kts 229°
2026-05-07 01:07 38.00488 -77.96518 30420 ft 262 kts 230°
2026-05-07 01:07 37.99103 -77.97984 30879 ft 258 kts 231°
2026-05-07 01:08 37.97731 -77.99444 31270 ft 257 kts 231°
2026-05-07 01:08 37.96365 -78.00897 31628 ft 256 kts 232°
2026-05-07 01:08 37.95008 -78.02336 32014 ft 254 kts 232°
2026-05-07 01:08 37.93652 -78.03773 32389 ft 253 kts 233°
2026-05-07 01:09 37.92304 -78.05202 32766 ft 252 kts 233°
2026-05-07 01:09 37.90964 -78.06621 33146 ft 250 kts 234°
2026-05-07 01:09 37.89633 -78.08030 33510 ft 249 kts 234°
2026-05-07 01:09 37.88323 -78.09418 33860 ft 248 kts 235°
2026-05-07 01:10 37.87002 -78.10815 34158 ft 247 kts 235°
2026-05-07 01:10 37.85688 -78.12205 34482 ft 246 kts 236°
2026-05-07 01:10 37.84380 -78.13586 34856 ft 244 kts 236°
2026-05-07 01:10 37.83079 -78.14961 35213 ft 243 kts 236°
2026-05-07 01:11 37.81783 -78.16330 35577 ft 242 kts 236°
2026-05-07 01:11 37.80496 -78.17687 35937 ft 240 kts 237°
2026-05-07 01:11 37.79216 -78.19039 36287 ft 239 kts 237°
2026-05-07 01:11 37.77942 -78.20381 36632 ft 238 kts 237°
2026-05-07 01:12 37.76673 -78.21718 36968 ft 237 kts 238°
2026-05-07 01:12 37.75426 -78.23032 37302 ft 236 kts 238°
2026-05-07 01:12 37.74172 -78.24355 37611 ft 235 kts 238°
2026-05-07 01:12 37.72918 -78.25677 37908 ft 235 kts 238°
2026-05-07 01:13 37.71652 -78.27016 37996 ft 241 kts 238°
2026-05-07 01:13 37.70343 -78.28402 38012 ft 250 kts 237°
2026-05-07 01:13 37.68982 -78.29831 38023 ft 258 kts 237°
2026-05-07 01:13 37.67580 -78.31300 38036 ft 266 kts 237°
2026-05-07 01:14 37.66142 -78.32807 38030 ft 271 kts 236°
2026-05-07 01:14 37.64695 -78.34325 38033 ft 277 kts 236°
2026-05-07 01:14 37.63204 -78.35884 38152 ft 279 kts 236°
2026-05-07 01:14 37.61711 -78.37441 38368 ft 278 kts 236°
2026-05-07 01:15 37.60226 -78.38997 38512 ft 277 kts 236°
2026-05-07 01:15 37.58745 -78.40551 38691 ft 277 kts 236°
2026-05-07 01:15 37.57261 -78.42104 38856 ft 277 kts 236°
2026-05-07 01:15 37.55781 -78.43651 39017 ft 277 kts 236°
2026-05-07 01:16 37.54301 -78.45198 39181 ft 276 kts 236°
2026-05-07 01:16 37.52844 -78.46722 39346 ft 276 kts 236°
2026-05-07 01:16 37.51368 -78.48263 39512 ft 275 kts 236°
2026-05-07 01:16 37.49892 -78.49804 39680 ft 275 kts 236°
2026-05-07 01:17 37.48421 -78.51339 39849 ft 275 kts 236°
2026-05-07 01:17 37.46950 -78.52872 40019 ft 274 kts 236°
2026-05-07 01:17 37.45480 -78.54402 40189 ft 274 kts 236°
2026-05-07 01:17 37.44006 -78.55919 40362 ft 274 kts 236°
2026-05-07 01:18 37.42533 -78.57437 40535 ft 273 kts 236°
2026-05-07 01:18 37.41066 -78.58953 40712 ft 273 kts 236°
2026-05-07 01:18 37.39599 -78.60468 40851 ft 272 kts 236°
2026-05-07 01:18 37.38153 -78.61959 41027 ft 272 kts 236°
2026-05-07 01:19 37.36691 -78.63465 41203 ft 272 kts 236°
2026-05-07 01:19 37.35229 -78.64971 41386 ft 272 kts 236°
2026-05-07 01:19 37.33768 -78.66475 41565 ft 271 kts 236°
2026-05-07 01:19 37.32312 -78.67973 41758 ft 270 kts 236°
2026-05-07 01:20 37.30857 -78.69470 41957 ft 270 kts 236°
2026-05-07 01:20 37.29407 -78.70960 42144 ft 269 kts 236°
2026-05-07 01:20 37.27962 -78.72444 42332 ft 268 kts 236°
2026-05-07 01:20 37.26523 -78.73923 42521 ft 267 kts 236°
2026-05-07 01:21 37.25108 -78.75373 42715 ft 265 kts 236°
2026-05-07 01:21 37.23681 -78.76838 42903 ft 265 kts 236°
2026-05-07 01:21 37.22248 -78.78316 42905 ft 269 kts 236°
2026-05-07 01:21 37.20788 -78.79816 42906 ft 273 kts 235°
2026-05-07 01:22 37.19302 -78.81335 42904 ft 278 kts 235°
2026-05-07 01:22 37.17799 -78.82870 42903 ft 280 kts 235°
2026-05-07 01:22 37.16281 -78.84424 42907 ft 283 kts 235°
2026-05-07 01:22 37.14748 -78.85993 42908 ft 286 kts 235°
2026-05-07 01:23 37.13216 -78.87561 42909 ft 290 kts 234°
2026-05-07 01:23 37.11644 -78.89165 42910 ft 293 kts 234°
2026-05-07 01:23 37.10058 -78.90784 42912 ft 296 kts 234°
2026-05-07 01:23 37.08454 -78.92420 42913 ft 299 kts 234°
2026-05-07 01:24 37.06835 -78.94071 42916 ft 301 kts 234°
2026-05-07 01:24 37.03567 -78.97400 42917 ft 305 kts 234°
2026-05-07 01:25 37.00262 -79.00763 42925 ft 308 kts 234°
2026-05-07 01:25 36.96945 -79.04135 42924 ft 311 kts 234°
2026-05-07 01:26 36.93584 -79.07558 42921 ft 312 kts 234°
2026-05-07 01:26 36.90228 -79.11017 42921 ft 314 kts 234°
2026-05-07 01:27 36.86850 -79.14478 42928 ft 314 kts 234°
2026-05-07 01:27 36.83466 -79.17946 42932 ft 315 kts 234°
2026-05-07 01:28 36.80089 -79.21401 42934 ft 316 kts 234°
2026-05-07 01:28 36.76681 -79.24884 42939 ft 317 kts 234°
2026-05-07 01:29 36.73270 -79.28365 42934 ft 317 kts 234°
2026-05-07 01:29 36.69854 -79.31850 42938 ft 318 kts 234°
2026-05-07 01:30 36.66425 -79.35341 42949 ft 319 kts 234°
2026-05-07 01:30 36.63010 -79.38815 42946 ft 319 kts 234°
2026-05-07 01:31 36.59569 -79.42311 42944 ft 320 kts 234°
2026-05-07 01:31 36.56123 -79.45807 42927 ft 319 kts 233°
2026-05-07 01:32 36.52684 -79.49294 42893 ft 319 kts 234°
2026-05-07 01:32 36.49251 -79.52769 42921 ft 318 kts 234°
2026-05-07 01:33 36.45814 -79.56245 42929 ft 319 kts 234°
2026-05-07 01:33 36.42398 -79.59696 42930 ft 319 kts 234°
2026-05-07 01:34 36.38957 -79.63166 42930 ft 318 kts 234°
2026-05-07 01:34 36.35521 -79.66629 42933 ft 318 kts 234°
2026-05-07 01:35 36.32081 -79.70091 42952 ft 318 kts 234°
2026-05-07 01:35 36.28664 -79.73525 42944 ft 318 kts 234°
2026-05-07 01:36 36.25227 -79.76980 42943 ft 319 kts 234°
2026-05-07 01:36 36.21776 -79.80439 42949 ft 319 kts 233°
2026-05-07 01:37 36.18321 -79.83900 42955 ft 320 kts 233°
2026-05-07 01:37 36.14863 -79.87360 42958 ft 320 kts 233°
2026-05-07 01:38 36.11401 -79.90820 42956 ft 320 kts 233°
2026-05-07 01:38 36.07959 -79.94255 42958 ft 320 kts 233°
2026-05-07 01:39 36.04273 -79.97474 42957 ft 333 kts 226°
2026-05-07 01:39 35.99944 -79.99927 42961 ft 349 kts 218°
2026-05-07 01:40 35.95449 -80.02153 42960 ft 348 kts 219°
2026-05-07 01:40 35.90944 -80.04382 42958 ft 349 kts 219°
2026-05-07 01:41 35.86461 -80.06594 42949 ft 349 kts 219°
2026-05-07 01:41 35.81944 -80.08823 42949 ft 350 kts 219°
2026-05-07 01:42 35.77422 -80.11050 42952 ft 350 kts 219°
2026-05-07 01:42 35.72887 -80.13280 42954 ft 351 kts 219°
2026-05-07 01:43 35.68351 -80.15510 42953 ft 351 kts 219°
2026-05-07 01:43 35.63841 -80.17723 42961 ft 351 kts 219°
2026-05-07 01:44 35.59305 -80.19945 42995 ft 350 kts 219°
2026-05-07 01:44 35.54780 -80.22160 43006 ft 350 kts 219°
2026-05-07 01:45 35.50265 -80.24368 43014 ft 349 kts 219°
2026-05-07 01:45 35.45759 -80.26569 43018 ft 348 kts 219°
2026-05-07 01:46 35.41285 -80.28749 43015 ft 349 kts 218°
2026-05-07 01:46 35.38933 -80.29673 43017 ft 361 kts 212°
2026-05-07 01:46 35.36433 -80.30317 43012 ft 373 kts 206°
2026-05-07 01:47 35.31292 -80.31272 42999 ft 374 kts 207°
2026-05-07 01:47 35.26148 -80.32265 42989 ft 375 kts 207°
2026-05-07 01:48 35.20988 -80.33233 42978 ft 375 kts 207°
2026-05-07 01:48 35.15823 -80.34217 42965 ft 376 kts 207°
2026-05-07 01:49 35.10682 -80.35187 42966 ft 377 kts 207°
2026-05-07 01:49 35.05489 -80.36170 42969 ft 378 kts 207°
2026-05-07 01:50 35.00275 -80.37152 42965 ft 380 kts 207°
2026-05-07 01:50 34.95049 -80.38136 42967 ft 380 kts 207°
2026-05-07 01:51 34.89852 -80.39114 42967 ft 381 kts 207°
2026-05-07 01:51 34.84617 -80.40096 42968 ft 381 kts 207°
2026-05-07 01:52 34.79370 -80.41084 42964 ft 382 kts 207°
2026-05-07 01:52 34.74103 -80.42069 42961 ft 384 kts 207°
2026-05-07 01:53 34.68822 -80.43058 42963 ft 385 kts 207°
2026-05-07 01:53 34.63563 -80.44041 42952 ft 385 kts 207°
2026-05-07 01:54 34.58263 -80.45030 42954 ft 385 kts 206°
2026-05-07 01:54 34.52951 -80.46022 42952 ft 387 kts 206°
2026-05-07 01:55 34.47626 -80.47012 42947 ft 388 kts 206°
2026-05-07 01:55 34.42322 -80.47999 42960 ft 388 kts 206°
2026-05-07 01:56 34.36972 -80.48992 42964 ft 389 kts 206°
2026-05-07 01:56 34.31624 -80.49984 42964 ft 389 kts 206°
2026-05-07 01:57 34.26266 -80.50985 42963 ft 388 kts 207°
2026-05-07 01:57 34.21157 -80.52483 42969 ft 381 kts 211°
2026-05-07 01:58 34.15999 -80.54002 42984 ft 382 kts 211°
2026-05-07 01:58 34.10849 -80.55556 42876 ft 381 kts 211°
2026-05-07 01:59 34.05714 -80.57088 42946 ft 380 kts 211°
2026-05-07 01:59 34.00609 -80.58616 42947 ft 381 kts 211°
2026-05-07 02:00 33.95462 -80.60152 42943 ft 381 kts 211°
2026-05-07 02:00 33.90311 -80.61687 42941 ft 381 kts 211°
2026-05-07 02:01 33.85165 -80.63219 42913 ft 380 kts 210°
2026-05-07 02:01 33.80032 -80.64745 42941 ft 380 kts 210°
2026-05-07 02:02 33.74933 -80.66260 42964 ft 380 kts 210°
2026-05-07 02:02 33.69792 -80.67785 42965 ft 381 kts 210°
2026-05-07 02:03 33.64647 -80.69309 42972 ft 381 kts 210°
2026-05-07 02:03 33.59502 -80.70832 42966 ft 380 kts 209°
2026-05-07 02:04 33.54361 -80.72351 42973 ft 380 kts 210°
2026-05-07 02:04 33.49254 -80.73858 42973 ft 381 kts 210°
2026-05-07 02:05 33.44107 -80.75372 42973 ft 381 kts 209°
2026-05-07 02:05 33.38958 -80.76885 42973 ft 381 kts 209°
2026-05-07 02:06 33.33814 -80.78395 42960 ft 381 kts 209°
2026-05-07 02:06 33.28668 -80.79904 42976 ft 381 kts 209°
2026-05-07 02:07 33.23513 -80.81413 42977 ft 381 kts 209°
2026-05-07 02:07 33.15808 -80.83667 42979 ft 382 kts 209°
2026-05-07 02:08 33.10641 -80.85173 42983 ft 382 kts 209°
2026-05-07 02:08 33.05471 -80.86682 42984 ft 382 kts 209°
2026-05-07 02:09 33.00297 -80.88188 42993 ft 383 kts 209°
2026-05-07 02:09 32.95157 -80.89683 42994 ft 383 kts 209°
2026-05-07 02:10 32.89981 -80.91187 42986 ft 382 kts 208°
2026-05-07 02:10 32.84815 -80.92686 42990 ft 382 kts 208°
2026-05-07 02:11 32.79652 -80.94182 42987 ft 382 kts 208°
2026-05-07 02:11 32.74526 -80.95667 42985 ft 382 kts 208°
2026-05-07 02:12 32.69355 -80.97162 42991 ft 383 kts 208°
2026-05-07 02:12 32.64181 -80.98656 42993 ft 383 kts 208°
2026-05-07 02:13 32.58999 -81.00151 42997 ft 383 kts 208°
2026-05-07 02:13 32.53837 -81.01584 42995 ft 389 kts 202°
2026-05-07 02:14 32.51104 -81.01925 43008 ft 401 kts 195°
2026-05-07 02:14 32.48295 -81.01967 43010 ft 404 kts 194°
2026-05-07 02:14 32.42679 -81.02076 43011 ft 404 kts 194°
2026-05-07 02:15 32.37053 -81.02173 43017 ft 405 kts 194°
2026-05-07 02:15 32.31422 -81.02274 43018 ft 405 kts 194°
2026-05-07 02:16 32.25831 -81.02372 43009 ft 404 kts 193°
2026-05-07 02:16 32.20207 -81.02472 43010 ft 404 kts 193°
2026-05-07 02:17 32.14589 -81.02571 43007 ft 404 kts 193°
2026-05-07 02:17 32.08970 -81.02671 42985 ft 404 kts 193°
2026-05-07 02:18 32.03345 -81.02770 42985 ft 404 kts 193°
2026-05-07 02:18 31.97777 -81.02872 42982 ft 402 kts 193°
2026-05-07 02:19 31.92188 -81.03049 43001 ft 402 kts 193°
2026-05-07 02:19 31.86595 -81.03191 42993 ft 402 kts 193°
2026-05-07 02:20 31.81006 -81.03348 42993 ft 402 kts 193°
2026-05-07 02:20 31.75452 -81.03498 42976 ft 402 kts 193°
2026-05-07 02:21 31.69869 -81.03651 43012 ft 402 kts 193°
2026-05-07 02:21 31.64277 -81.03803 43018 ft 402 kts 193°
2026-05-07 02:22 31.58857 -81.04562 43029 ft 383 kts 207°
2026-05-07 02:22 31.54067 -81.06746 43032 ft 364 kts 219°
2026-05-07 02:23 31.49580 -81.09509 43036 ft 365 kts 219°
2026-05-07 02:23 31.45078 -81.12260 43019 ft 365 kts 219°
2026-05-07 02:24 31.40572 -81.15021 43029 ft 366 kts 219°
2026-05-07 02:24 31.36076 -81.17753 43032 ft 367 kts 218°
2026-05-07 02:25 31.31504 -81.20443 43031 ft 368 kts 218°
2026-05-07 02:25 31.26942 -81.23163 43028 ft 368 kts 218°
2026-05-07 02:26 31.24644 -81.24529 42700 ft 376 kts 218°
2026-05-07 02:26 31.22293 -81.25913 42176 ft 381 kts 216°
2026-05-07 02:26 31.19771 -81.27073 41699 ft 397 kts 208°
2026-05-07 02:26 31.17104 -81.27846 41191 ft 391 kts 201°
2026-05-07 02:27 31.14373 -81.28223 40667 ft 401 kts 193°
2026-05-07 02:27 31.11552 -81.28246 40137 ft 407 kts 190°
2026-05-07 02:27 31.08755 -81.28230 39601 ft 407 kts 190°
2026-05-07 02:27 31.05925 -81.28232 39072 ft 407 kts 190°
2026-05-07 02:28 31.03097 -81.28230 38510 ft 407 kts 190°
2026-05-07 02:28 31.00257 -81.28219 37957 ft 408 kts 189°
2026-05-07 02:28 30.97406 -81.28209 37415 ft 410 kts 189°
2026-05-07 02:28 30.94551 -81.28204 36854 ft 411 kts 189°
2026-05-07 02:29 30.91680 -81.28198 36336 ft 414 kts 189°
2026-05-07 02:29 30.88797 -81.28190 35794 ft 415 kts 188°
2026-05-07 02:29 30.85942 -81.28181 35254 ft 416 kts 188°
2026-05-07 02:29 30.83044 -81.28174 34708 ft 417 kts 188°
2026-05-07 02:30 30.80136 -81.28168 34160 ft 419 kts 187°
2026-05-07 02:30 30.77218 -81.28160 33572 ft 420 kts 187°
2026-05-07 02:30 30.74288 -81.28152 33014 ft 422 kts 187°
2026-05-07 02:30 30.71346 -81.28146 32456 ft 424 kts 187°
2026-05-07 02:31 30.68389 -81.28137 31898 ft 426 kts 187°
2026-05-07 02:31 30.65424 -81.28129 31321 ft 428 kts 188°
2026-05-07 02:31 30.62476 -81.28123 30779 ft 431 kts 188°
2026-05-07 02:31 30.59470 -81.28088 30211 ft 434 kts 186°
2026-05-07 02:32 30.56440 -81.27929 29588 ft 437 kts 185°
2026-05-07 02:32 30.53400 -81.27757 29009 ft 437 kts 185°
2026-05-07 02:32 30.50366 -81.27602 28433 ft 433 kts 185°
2026-05-07 02:32 30.47356 -81.27455 27863 ft 433 kts 185°
2026-05-07 02:33 30.44362 -81.27302 27297 ft 428 kts 185°
2026-05-07 02:33 30.41408 -81.27145 26734 ft 424 kts 185°
2026-05-07 02:33 30.38496 -81.26999 26181 ft 419 kts 185°
2026-05-07 02:33 30.35607 -81.26849 25633 ft 414 kts 185°
2026-05-07 02:34 30.32735 -81.26706 25088 ft 411 kts 185°
2026-05-07 02:34 30.29890 -81.26561 24548 ft 407 kts 185°
2026-05-07 02:34 30.27071 -81.26415 24010 ft 404 kts 185°
2026-05-07 02:34 30.24277 -81.26257 23432 ft 400 kts 184°
2026-05-07 02:35 30.21507 -81.26071 22871 ft 397 kts 184°
2026-05-07 02:35 30.18763 -81.25894 22336 ft 393 kts 184°
2026-05-07 02:35 30.16046 -81.25734 21806 ft 390 kts 184°
2026-05-07 02:35 30.13384 -81.25574 21284 ft 386 kts 183°
2026-05-07 02:36 30.10711 -81.25407 20756 ft 383 kts 183°
2026-05-07 02:36 30.08055 -81.25242 20248 ft 381 kts 183°
2026-05-07 02:36 30.05424 -81.25082 19736 ft 377 kts 182°
2026-05-07 02:36 30.02813 -81.24922 19226 ft 374 kts 182°
2026-05-07 02:37 30.00222 -81.24763 18720 ft 371 kts 182°
2026-05-07 02:37 29.97655 -81.24605 18197 ft 368 kts 181°
2026-05-07 02:37 29.95115 -81.24450 17619 ft 364 kts 181°
2026-05-07 02:37 29.92633 -81.24298 17114 ft 361 kts 181°
2026-05-07 02:38 29.90140 -81.24208 16625 ft 357 kts 182°
2026-05-07 02:38 29.87665 -81.24116 16140 ft 354 kts 182°
2026-05-07 02:38 29.85215 -81.24013 15661 ft 352 kts 182°
2026-05-07 02:38 29.82779 -81.23924 15184 ft 348 kts 182°
2026-05-07 02:39 29.80366 -81.23842 14711 ft 347 kts 181°
2026-05-07 02:39 29.77958 -81.23754 14243 ft 344 kts 181°
2026-05-07 02:39 29.75609 -81.23591 13763 ft 344 kts 174°
2026-05-07 02:39 29.73273 -81.23013 13235 ft 342 kts 168°
2026-05-07 02:40 29.70993 -81.22289 12725 ft 338 kts 167°
2026-05-07 02:40 29.68725 -81.21638 12304 ft 334 kts 170°
2026-05-07 02:40 29.66468 -81.21067 12082 ft 332 kts 170°
2026-05-07 02:40 29.64212 -81.20477 11872 ft 331 kts 169°
2026-05-07 02:41 29.61977 -81.19867 11665 ft 330 kts 169°
2026-05-07 02:41 29.59761 -81.19255 11477 ft 320 kts 169°
2026-05-07 02:41 29.57690 -81.18687 11265 ft 302 kts 169°
2026-05-07 02:41 29.55655 -81.18139 11057 ft 300 kts 170°
2026-05-07 02:42 29.53623 -81.17591 10813 ft 300 kts 169°
2026-05-07 02:42 29.51601 -81.17039 10618 ft 299 kts 169°
2026-05-07 02:42 29.49578 -81.16488 10405 ft 298 kts 169°
2026-05-07 02:42 29.47564 -81.15942 10195 ft 297 kts 169°
2026-05-07 02:43 29.45558 -81.15398 9986 ft 295 kts 169°
2026-05-07 02:43 29.43563 -81.14857 9758 ft 294 kts 169°
2026-05-07 02:43 29.41579 -81.14319 9530 ft 293 kts 168°
2026-05-07 02:43 29.39623 -81.13788 9301 ft 292 kts 168°
2026-05-07 02:44 29.37634 -81.13372 9032 ft 290 kts 178°
2026-05-07 02:44 29.35638 -81.13500 8533 ft 286 kts 192°
2026-05-07 02:44 29.33763 -81.14143 7972 ft 279 kts 205°
2026-05-07 02:44 29.32090 -81.15240 7432 ft 276 kts 217°
2026-05-07 02:45 29.30685 -81.16729 6964 ft 275 kts 230°
2026-05-07 02:45 29.29610 -81.18530 6510 ft 273 kts 242°
2026-05-07 02:45 29.29109 -81.19838 6186 ft 271 kts 250°
2026-05-07 02:45 29.28573 -81.22604 5512 ft 266 kts 260°
2026-05-07 02:46 29.28254 -81.24685 5039 ft 265 kts 258°
2026-05-07 02:46 29.27923 -81.26743 4560 ft 261 kts 259°
2026-05-07 02:46 29.27604 -81.28778 4078 ft 259 kts 258°
2026-05-07 02:46 29.27288 -81.30821 3648 ft 262 kts 258°
2026-05-07 02:47 29.27076 -81.32180 3300 ft 261 kts 258°
2026-05-07 02:47 29.26670 -81.34182 2780 ft 257 kts 248°
2026-05-07 02:47 29.25820 -81.35961 2268 ft 254 kts 233°
2026-05-07 02:47 29.24591 -81.37403 1746 ft 255 kts 217°
2026-05-07 02:48 29.22524 -81.38624 1613 ft 255 kts 197°
2026-05-07 02:48 29.21352 -81.38900 1621 ft 255 kts 186°
2026-05-07 02:48 29.19025 -81.38707 1620 ft 255 kts 166°
2026-05-07 02:48 29.17917 -81.38250 1621 ft 256 kts 155°
2026-05-07 02:49 29.16401 -81.37256 1617 ft 240 kts 149°
2026-05-07 02:49 29.15078 -81.36264 1619 ft 215 kts 146°
2026-05-07 02:49 29.13931 -81.35292 1616 ft 197 kts 143°
2026-05-07 02:49 29.12907 -81.34327 1612 ft 186 kts 140°
2026-05-07 02:50 29.11657 -81.33007 1612 ft 185 kts 137°
2026-05-07 02:50 29.11047 -81.32297 1610 ft 186 kts 135°
2026-05-07 02:50 29.10183 -81.31196 1611 ft 186 kts 131°
2026-05-07 02:50 29.09471 -81.29988 1612 ft 187 kts 114°
2026-05-07 02:51 29.09202 -81.28531 1611 ft 190 kts 90°
2026-05-07 02:51 29.09501 -81.27065 1614 ft 190 kts 71°
2026-05-07 02:51 29.09998 -81.25760 1615 ft 167 kts 70°
2026-05-07 02:51 29.10441 -81.24629 1609 ft 144 kts 70°
2026-05-07 02:52 29.10837 -81.23654 1613 ft 135 kts 70°
2026-05-07 02:52 29.11232 -81.22673 1612 ft 134 kts 70°
2026-05-07 02:52 29.11619 -81.21718 1608 ft 132 kts 71°
2026-05-07 02:52 29.12001 -81.20774 1602 ft 134 kts 69°
2026-05-07 02:53 29.12394 -81.19812 1599 ft 133 kts 70°
2026-05-07 02:53 29.12781 -81.18846 1614 ft 135 kts 71°
2026-05-07 02:53 29.13174 -81.17876 1593 ft 134 kts 69°
2026-05-07 02:53 29.13571 -81.16904 1571 ft 136 kts 70°
2026-05-07 02:54 29.13959 -81.15927 1541 ft 133 kts 71°
2026-05-07 02:54 29.14344 -81.14991 1407 ft 128 kts 70°
2026-05-07 02:54 29.14713 -81.14063 1263 ft 128 kts 72°
2026-05-07 02:54 29.15091 -81.13143 1090 ft 127 kts 73°
2026-05-07 02:55 29.15455 -81.12234 914 ft 123 kts 70°
2026-05-07 02:55 29.15813 -81.11351 764 ft 123 kts 71°
2026-05-07 02:55 29.16169 -81.10468 655 ft 124 kts 70°
2026-05-07 02:55 29.16539 -81.09544 533 ft 130 kts 65°
2026-05-07 02:56 29.16904 -81.08646 365 ft 121 kts 68°
2026-05-07 02:56 29.17254 -81.07790 123 ft 116 kts 66°
2026-05-07 02:56 29.17573 -81.07001 35 ft 94 kts 65°
2026-05-07 02:56 29.17743 -81.06574 35 ft 27 kts 68°
2026-05-07 02:57 29.17789 -81.06454 35 ft 13 kts 76°
2026-05-07 02:57 29.17816 -81.06371 35 ft 10 kts 97°
2026-05-07 02:57 29.17782 -81.06306 36 ft 9 kts 124°
2026-05-07 02:57 29.17736 -81.06229 37 ft 15 kts 124°
2026-05-07 02:58 29.17693 -81.06134 37 ft 13 kts 89°
2026-05-07 02:58 29.17725 -81.06039 37 ft 13 kts 66°
2026-05-07 02:58 29.17744 -81.05982 37 ft 3 kts 108°
2026-05-07 02:58 29.17728 -81.05966 37 ft 0 kts 153°